Meteo Giornale » Osservazioni meteo Gran Bretagna » Liverpool

ore: 19:50 - Osservazioni Meteo Liverpool
Lat. 53° 20' N Lon. 2° 51' W Alt. 26 metri s.l.m.

poco_nuvoloso

17 °C

Poco Nuvoloso

Temp. 24 Ore

10 °C

20 °C

Ovest/Sud-Ovest

20.3 Km/h

Dew point 11 °C

Umidità 67 %

Visibilità  10 Km

Il sole sorge alle ore 06:21

Il sole tramonta alle ore 20:01

Data e Ora Cielo e Fenomeni T °C DP °C Um. % Pres. hPa Vis. km Vento km/h
Oggi h: 19:50 poco_nuvoloso Poco Nuvoloso 17 11 67 1018 10 O/SO 20.3
Oggi h: 19:20 poco_nuvoloso Poco Nuvoloso 18 12 67 1018 10 O/SO 22.2
Oggi h: 18:50 poco_nuvoloso Poco Nuvoloso 18 11 63 1017 10 O/SO 22.2
Oggi h: 18:20 nuvoloso Nuvoloso 18 11 63 1017 10 O/SO 22.2
Oggi h: 17:50 nuvoloso Nuvoloso 19 11 59 1018 10 O/SO 24
Oggi h: 17:20 nuvoloso Nuvoloso 19 11 59 1018 10 O/SO 24
Oggi h: 16:50 nuvoloso Nuvoloso 19 11 59 1018 10 O/SO 22.2
Oggi h: 16:20 nuvoloso Nuvoloso 19 11 59 1018 10 O/SO 27.8
Oggi h: 15:50 nuvoloso Nuvoloso 19 11 59 1018 10 O/SO 25.9
Oggi h: 15:20 nuvoloso Nuvoloso 19 11 59 1018 10 O/SO 25.9
Oggi h: 14:50 nuvoloso Pioggia nelle vicinanze 20 12 59 1018 10 O/SO 25.9
Oggi h: 14:20 nuvoloso Pioggia nelle vicinanze 19 12 63 1018 10 O/NO 14.8
Oggi h: 13:50 molto_nuvoloso Pioggia nelle vicinanze 19 11 59 1018 10 O 18.5
Oggi h: 13:20 nuvoloso Nuvoloso 20 12 59 1018 10 O/SO 22.2
Oggi h: 12:50 nuvoloso Nuvoloso 20 11 56 1018 10 SO 24
Oggi h: 12:20 nuvoloso Nuvoloso 20 11 56 1018 10 O/SO 24
Oggi h: 11:50 nuvoloso Nuvoloso 19 11 59 1018 10 SO 16.7
Oggi h: 11:20 poco_nuvoloso Poco Nuvoloso 19 11 59 1018 10 SO 16.7
Oggi h: 10:50 sereno Sereno 18 11 63 1018 10 SO 18.5
Oggi h: 10:20 sereno Sereno 17 11 67 1018 10 SO 22.2
Oggi h: 09:50 sereno Sereno 17 11 67 1018 10 SO 24
Oggi h: 09:20 sereno Sereno 16 11 72 1018 10 SO 13
Oggi h: 08:50 sereno Sereno 15 11 76 1018 10 S 7.4
Oggi h: 08:20 sereno Sereno 14 11 82 1018 10 N 5.5
Oggi h: 07:50 sereno Sereno 12 11 93 1018 10 N 3.7
Oggi h: 07:20 sereno Sereno 12 11 93 1018 10 N 1.8
Oggi h: 06:50 sereno Sereno 11 9 87 1018 10 N 5.5
Oggi h: 06:20 sereno Sereno 10 9 93 1018 10 N 5.5
Oggi h: 05:50 sereno Sereno 11 9 87 1018 10 N 5.5
Oggi h: 05:20 sereno Sereno 11 9 87 1018 10 SE 9.3
Oggi h: 04:50 sereno Sereno 11 9 87 1018 10 S 7.4
Oggi h: 04:20 sereno Sereno 12 9 81 1018 10 S 7.4
Oggi h: 03:50 sereno Sereno 12 9 81 1018 10 N 5.5
Oggi h: 03:20 sereno Sereno 12 9 81 1018 10 N 5.5
Oggi h: 02:50 sereno Sereno 12 9 81 1018 10 N 3.7
Oggi h: 02:20 sereno Sereno 13 9 76 1018 10 O/SO 7.4
Oggi h: 01:50 sereno Sereno 13 10 81 1018 10 O/SO 11.1
Oggi h: 01:20 sereno Sereno 14 10 76 1018 10 O/SO 13
Oggi h: 00:50 sereno Sereno 14 10 76 1018 10 O/SO 14.8
Oggi h: 00:20 sereno Sereno 14 10 76 1018 10 O/SO 13
Ieri h: 23:50 poco_nuvoloso Poco Nuvoloso 14 10 76 1018 10 O 14.8
Ieri h: 23:20 molto_nuvoloso Molto Nuvoloso 14 11 82 1018 10 O/SO 13
Ieri h: 22:50 molto_nuvoloso Molto Nuvoloso 14 11 82 1017 10 O 13
Ieri h: 22:20 poco_nuvoloso Poco Nuvoloso 15 11 76 1017 10 O/SO 13
Ieri h: 21:50 sereno Sereno 14 10 76 1017 10 O 14.8
Ieri h: 21:20 sereno Sereno 15 10 72 1017 10 O 18.5
Ieri h: 20:50 sereno Sereno 15 10 72 1017 10 O 18.5